Weather Service Report


238 
ASUS43 KDMX 282306
RWRIA 

WEATHER ROUNDUP FOR IOWA
NATIONAL WEATHER SERVICE DES MOINES IA
600 PM CDT TUE MAR 28 2017

NOTE: "FAIR" INDICATES FEW OR NO CLOUDS BELOW 12,000 FEET WITH NO
SIGNIFICANT WEATHER AND/OR OBSTRUCTIONS TO VISIBILITY.

* - THESE STATIONS ARE NOT NWS STATIONS...THUS NOT UNDER NWS
QUALITY CONTROL.  THEY ALSO DO NOT REPORT WEATHER SUCH 
AS PRECIPITATION OR FOG.  

IAZ001>003-012>014-020>022-031>034-043>046-290000-
   NORTHWEST IOWA
  
CITY           SKY/WX    TMP DP  RH WIND       PRES   REMARKS
CARROLL *      CLOUDY    50  45  81 E13       30.09S                  
CHEROKEE *     SUNNY     57  37  46 E8        30.08R                  
DENISON *      CLOUDY    50  43  76 E12       30.10R                  
LE MARS *      MOSUNNY   61  39  44 E12       30.08R                  
ORANGE CITY *  SUNNY     57  37  47 E8        30.08R                  
SHELDON *      CLOUDY    57  36  44 E15G21    30.07S                  
STORM LAKE *   MOSUNNY   55  41  58 E15       30.08R                  
$$
 
IAZ055>058-069>071-079>083-090>094-290000-
   SOUTHWEST IOWA
  
CITY           SKY/WX    TMP DP  RH WIND       PRES   REMARKS
ATLANTIC *     CLOUDY    50  43  76 NE6       30.08R                  
AUDUBON *      CLOUDY    50  43  76 E8        30.09S                  
CLARINDA *     CLOUDY    54  45  71 NE9       30.07S                  
COUNCIL BLFS * CLOUDY    48  45  87 E7        30.08R                  
CRESTON *      CLOUDY    50  45  81 NE14      30.07F                  
HARLAN  *      CLOUDY    50  45  81 E10       30.11R                  
RED OAK *      CLOUDY    52  43  71 E9G15     30.07S                  
SHENANDOAH *   CLOUDY    52  45  76 NE12      30.06S                  
$$
 
IAZ047>049-059>061-072>074-084-290000-
   CENTRAL IOWA
  
CITY           SKY/WX    TMP DP  RH WIND       PRES   REMARKS
ANKENY *       CLOUDY    52  43  71 E8        30.11F                  
BOONE *        CLOUDY    50  45  81 SE10      30.10S                  
CHARITON *     CLOUDY    52  45  76 E9        30.09R                  
DES MOINES     CLOUDY    52  42  69 NE8       30.10S                  
KNOXVILLE *    CLOUDY    52  45  76 E9        30.08F                  
NEWTON *       CLOUDY    50  43  76 E12       30.10S                  
PELLA *        CLOUDY    51  43  73 E5        30.11S                  
PERRY *        CLOUDY    50  43  77 E13       30.10S                  
$$
 
IAZ004>006-015-016-023>025-035-036-290000-
   NORTH CENTRAL IOWA
  
CITY           SKY/WX    TMP DP  RH WIND       PRES   REMARKS
ALGONA *       MOSUNNY   57  41  54 E10       30.10F                  
CLARION *      PTSUNNY   59  41  51 E9        30.09S                  
FORT DODGE *   PTSUNNY   55  43  62 E8        30.10S                  
FOREST CITY *    N/A     57  37  47 E8        30.11S                  
WEBSTER CITY * CLOUDY    55  43  62 SE13      30.08S                  
IOWA FALLS *     N/A     57  43  58 E5        30.11R                  
$$

IAZ007>011-017>019-026>030-037>042-050>054-066-290000-
   NORTHEAST IOWA
  
CITY           SKY/WX    TMP DP  RH WIND       PRES   REMARKS
CLINTON *      CLOUDY    48  41  76 E10       30.15R                  
DECORAH *      SUNNY     57  37  47 E9        30.12S                  
MONTICELLO *   MOSUNNY   52  41  66 NE8       30.14R                  
OELWEIN *      SUNNY     55  39  54 E10       30.13R                  
WATERLOO       SUNNY     58  38  47 E12       30.11R                  
$$
 
IAZ064-065-067-068-078-290000-
   EAST CENTRAL IOWA
  
CITY           SKY/WX    TMP DP  RH WIND       PRES   REMARKS
IOWA CITY      CLOUDY    54  43  66 E6        30.14R                  
MUSCATINE *    CLOUDY    52  43  71 NE10      30.13S                  
$$
 
IAZ062-063-075>077-085>089-095>099-290000-
   SOUTHEAST IOWA
  
CITY           SKY/WX    TMP DP  RH WIND       PRES   REMARKS
BURLINGTON     CLOUDY    51  47  86 E6        30.11R                  
FAIRFIELD *    CLOUDY    52  45  76 E9        30.11S                  
FORT MADISON * CLOUDY    50  48  93 E6        30.13R FOG              
KEOKUK *       CLOUDY    52  48  87 E10       30.11R                  
OSKALOOSA *    CLOUDY    51  44  77 E7        30.11S                  
CENTERVILLE *  CLOUDY    50  46  87 CALM      30.10S                  
WASHINGTON *   CLOUDY    50  48  93 E8        30.13S                  
$$

ABBREVIATIONS USED IN REMARKS
   TC - TEMPERATURES IN CELSIUS
  WCI - WIND CHILL INDEX
   HX - HEAT INDEX
  VSB - VISIBILITY  
$$

  

Return to Home page


Western Regional Climate Center, wrcc@dri.edu